Tracking 19297 objects as of 21-Nov-2018
HD Live streaming from Space Station
objects crossing your sky now

COSMOS 1782

Track COSMOS 1782 now!
10-day predictions
COSMOS 1782 is classified as:


NORAD ID: 16986
Int'l Code: 1986-074A
Perigee: 545.1 km
Apogee: 560.2 km
Inclination: 82.5 °
Period: 95.6 minutes
Semi major axis: 6923 km
RCS: 9.471 m2 (large)
Launch date: September 30, 1986
Source: Commonwealth of Independent States (former USSR) (CIS)
Launch site: PLESETSK MISSILE AND SPACE COMPLEX (PKMTR)
aabbcc
Your satellite tracking list
Your tracking list is empty




NASA's NSSDC Master Catalog

Two Line Element Set (TLE):
1 16986U 86074A   18325.48043696 -.00000078  00000-0 -71636-5 0  9999
2 16986  82.5044 332.9749 0010927   9.6204 350.5231 15.06961315749503
Source of the keplerian elements: AFSPC